Regional Weather Roundup
Issued by NWS

Home | Current Version | Previous Version | Graphics & Text | Print | Product List | Glossary On
Versions: 1 2 3 4 5 6 7 8 9 10 11 12 13 14 15 16 17 18 19 20 21 22 23 24 25 26 27 28 29 30 31 32 33 34 35 36 37 38 39 40 41 42 43 44 45 46 47 48 49 50
073
ASUS43 KOAX 211810
RWRNE

WEATHER ROUNDUP FOR NEBRASKA
NATIONAL WEATHER SERVICE OMAHA NE
1200 PM CST SAT JAN 21 2017

NOTES: SATELLITE DATA IS BEING USED TO AUGMENT CLOUD COVER ABOVE
       12000 FEET.
       "FAIR" INDICATES FEW OR NO CLOUDS BELOW 12,000 FEET WITH NO
       SIGNIFICANT WEATHER AND/OR OBSTRUCTIONS TO VISIBILITY.

  * THESE STATIONS DO NOT REPORT WEATHER SUCH AS RAIN...SNOW OR FOG.

NEZ001>004-019>022-054>056-211900-
NEBRASKA PANHANDLE

CITY           SKY/WX    TMP DP  RH WIND       PRES   REMARKS
SCOTTSBLUFF    SUNNY     35  27  72 CALM      29.42F
6HR MIN TEMP:  18; 6HR MAX TEMP:  36;

ALLIANCE       SUNNY     38  31  76 SW6       29.41S WCI  33
6HR MIN TEMP:  14; 6HR MAX TEMP:  38;

CHADRON        SUNNY     32  25  75 W6        29.43S WCI  26
6HR MIN TEMP:  25; 6HR MAX TEMP:  32;

KIMBALL        SUNNY     40  28  61 S15       29.42R WCI  32
SIDNEY         SUNNY     40  25  55 SW12      29.43S WCI  33
6HR MIN TEMP:  19; 6HR MAX TEMP:  41;

$$

NEZ057>060-069>072-079>082-211900-
SOUTHWEST NEBRASKA

CITY           SKY/WX    TMP DP  RH WIND       PRES   REMARKS
NORTH PLATTE   SUNNY     41  31  67 W5        29.44F
6HR MIN TEMP:  22; 6HR MAX TEMP:  41;

IMPERIAL       SUNNY     41  26  55 W5        29.45R
6HR MIN TEMP:  26; 6HR MAX TEMP:  41;

LEXINGTON      SUNNY     42  35  75 NW6       29.43F
MCCOOK         SUNNY     43  33  68 W6        29.45S
6HR MIN TEMP:  24; 6HR MAX TEMP:  43;

OGALLALA       SUNNY     40  33  75 W7        29.45S
$$

NEZ005>010-023>029-035>040-094-211900-
NORTH CENTRAL NEBRASKA

CITY           SKY/WX    TMP DP  RH WIND       PRES   REMARKS
VALENTINE      SUNNY     43  31  62 NW12      29.40S
6HR MIN TEMP:  27; 6HR MAX TEMP:  44;

AINSWORTH      SUNNY     45  33  62 NW8       29.40F
BROKEN BOW     SUNNY     44  38  79 S5        29.42F
6HR MIN TEMP:  32; 6HR MAX TEMP:  44;

O`NEILL        SUNNY     44  35  69 W10       29.41F
ORD            SUNNY     44  35  70 VRB3      29.41F
6HR MIN TEMP:  30; 6HR MAX TEMP:  45;

THEDFORD       SUNNY     43  36  76 W5        29.42F
$$

NEZ041-046>049-061>064-073>077-083>087-211900-
SOUTH CENTRAL NEBRASKA

CITY           SKY/WX    TMP DP  RH WIND       PRES   REMARKS
GRAND ISLAND   SUNNY     47  39  74 W5        29.44F
6HR MIN TEMP:  30; 6HR MAX TEMP:  47;

AURORA         SUNNY     44  44 100 NW6       29.44F
HASTINGS       SUNNY     45  39  79 NW3       29.45F
6HR MIN TEMP:  32; 6HR MAX TEMP:  45;

HEBRON         SUNNY     45  43  92 SW6       29.48F
HOLDREGE       SUNNY     43  37  79 NW10      29.43F
KEARNEY *      SUNNY     46  -6  11 NW3       29.43F
YORK           SUNNY     45  41  87 W5        29.46R
$$

NEZ011>018-030>034-042>045-211900-
NORTHEAST NEBRASKA

CITY           SKY/WX    TMP DP  RH WIND       PRES   REMARKS
NORFOLK        CLOUDY    44  35  70 W12       29.39F
6HR MIN TEMP:  32; 6HR MAX TEMP:  44;

ALBION         SUNNY    N/A N/A N/A W10       29.42F
BLAIR          SUNNY     42  42  99 SW7       29.43S
FREMONT        SUNNY     42  42  99 W6        29.44S
TEKAMAH        MOSUNNY   46  38  73 W9        29.42F
6HR MIN TEMP:  34; 6HR MAX TEMP:  46;

WAYNE          MOSUNNY   42  37  80 W12       29.41F
$$

NEZ050>053-065>068-078-088>093-211900-
SOUTHEAST NEBRASKA

CITY           SKY/WX    TMP DP  RH WIND       PRES   REMARKS
LINCOLN        SUNNY     47  40  76 SW7       29.47S
6HR MIN TEMP:  32; 6HR MAX TEMP:  47;

OMAHA EPPLEY   MOSUNNY   46  39  76 S3        29.44S
6HR MIN TEMP:  39; 6HR MAX TEMP:  46;

BEATRICE       SUNNY     47  42  85 SW8       29.48F
FALLS CITY     MOSUNNY   48  42  80 S10       29.49F
6HR MIN TEMP:  39; 6HR MAX TEMP:  48;

NEBRASKA CITY  MOSUNNY   42  42 100 SW12      29.48S
PLATTSMOUTH    SUNNY     46  39  77 SW8       29.45F
$$

NEZ044-045-051>053-067-211900-
OMAHA AREA

CITY           SKY/WX    TMP DP  RH WIND       PRES   REMARKS
OMAHA EPPLEY   MOSUNNY   46  39  76 S3        29.44S
6HR MIN TEMP:  39; 6HR MAX TEMP:  46;

BLAIR          SUNNY     42  42  99 SW7       29.43S
FREMONT        SUNNY     42  42  99 W6        29.44S
MILLARD        SUNNY     48  40  73 SW5       29.45S
OFFUTT AFB     SUNNY     46  45  99 S9        29.45S
PLATTSMOUTH    SUNNY     46  39  77 SW8       29.45F
WAHOO          FAIR      46  39  78 W5        29.45R
$$




USA.gov is the U.S. government's official web portal to all federal, state and local government web resources and services.